Temp
54 54 54 53 53 52 49 42 34 48 54 39 40 37 43 48 46 49 48 47 45 42 43 39 39 40 43 46 50 46 47 38 30 36 41 43 42 40 39 31 31 27 25 28
54 54 53 52 52 51 43 34 34 45 48 32 32 40 42 44 45 46 45 45 48 48 43 39 42 43 44 45 47 48 48 36 25 31 36 37 38 40 41 40 36 29 25 29
54 53 53 52 52 51 42 33 31 37 40 39 39 38 38 39 44 46 48 47 48 46 43 45 40 39 42 44 44 48 49 39 34 32 34 37 34 38 41 40 29 32 31 26
54 53 53 52 52 51 42 33 32 32 31 31 35 39 36 36 35 40 42 40 42 42 37 41 38 39 40 43 44 43 45 36 37 37 40 39 37 38 39 39 38 34 34 32
54 53 52 52 51 51 42 33 32 34 32 34 34 37 34 36 34 36 35 34 34 33 36 35 35 36 39 40 40 39 39 31 33 32 38 39 36 38 38 39 39 38 37 33
52 52 52 52 51 49 40 41 41 36 33 32 32 33 35 36 39 35 37 36 35 33 34 37 37 37 37 37 37 33 34 32 30 27 31 31 27 33 38 39 37 38 35 36
52 52 52 52 52 49 43 42 41 34 30 33 33 33 36 36 40 36 36 37 35 37 42 41 40 38 37 37 35 37 32 31 28 25 27 22 26 32 35 33 31 33 33 36
52 52 52 52 52 52 44 44 41 35 31 33 33 33 33 37 38 33 35 36 39 43 39 32 30 29 32 31 34 34 35 30 27 26 24 27 26 31 31 32 26 34 33 34
52 52 52 52 52 52 45 44 44 40 32 32 35 33 34 32 31 31 33 40 43 40 34 31 26 25 29 26 28 34 34 32 31 26 24 21 25 31 36 35 23 36 36 33
51 51 51 52 51 50 45 42 44 40 33 36 37 34 33 35 33 31 32 33 34 36 30 26 25 24 30 24 24 25 27 27 27 26 22 25 30 34 37 26 26 36 37 36
50 51 51 51 50 50 45 42 45 40 34 35 37 37 36 35 34 30 32 32 32 30 26 26 26 24 27 24 26 27 25 24 24 25 21 20 36 35 29 31 35 37 36 36
49 50 51 51 51 49 48 39 45 44 37 34 39 39 40 38 39 36 34 32 32 33 28 26 26 20 18 24 19 30 24 29 26 28 27 35 37 36 38 39 37 36 35 35
50 50 51 50 50 49 47 41 41 41 35 34 34 33 38 44 41 42 33 34 38 34 35 28 26 24 24 19 18 22 27 31 26 27 31 33 35 36 36 36 34 34 34 33
50 50 50 49 50 48 47 40 41 39 36 28 29 39 35 41 43 42 41 38 38 36 34 27 24 25 27 22 25 23 27 29 27 26 28 30 30 29 32 32 32 31 31 31
49 49 48 48 48 47 44 42 42 42 35 26 28 34 35 39 40 39 39 38 33 29 27 26 25 25 25 19 22 18 24 25 25 24 28 28 24 25 29 27 26 27 27 26
48 48 48 48 47 47 41 34 41 43 41 31 23 31 31 34 37 35 35 35 32 31 27 24 22 28 25 18 16 22 22 23 22 24 22 23 23 23 25 23 25 26 25 26
48 48 48 47 47 41 35 34 39 44 41 29 24 25 30 32 34 31 30 32 31 30 27 26 21 24 23 16 16 20 20 20 21 22 24 22 20 18 21 23 24 27 24 24
47 48 47 47 45 42 34 38 44 43 35 32 23 22 26 31 27 25 28 26 24 25 26 25 25 24 21 18 18 17 18 20 20 20 21 20 20 20 20 21 21 20 20 20
46 45 45 36 34 33 32 44 43 37 33 26 24 21 19 30 27 27 27 24 20 26 20 22 25 22 16 15 15 14 14 16 17 19 19 18 17 16 17 17 17 16 18 19
43 34 26 19 26 43 39 28 23 23 23 25 22 23 18 24 26 25 24 24 19 12 22 24 18 15 14 12 12 13 12 13 16 12 15 16 14 15 14 14 15 16 16 17
34 29 24 29 39 27 17 10 12 11 12 24 23 21 20 26 20 21 24 19 15 7 17 17 14 15 8 9 10 11 11 12 12 13 13 14 11 9 10 13 15 16 16 16
29 33 36 32 20 11 10 -0 14 14 15 21 21 19 20 20 23 19 19 12 12 5 15 9 7 4 10 10 9 10 7 7 10 11 8 9 13 10 8 9 11 13 15 15
35 31 20 24 12 8 3 0 5 14 21 16 17 13 17 19 18 11 16 4 6 19 7 5 1 9 9 2 4 8 8 6 9 11 12 10 9 12 6 4 10 10 8 11
27 19 13 13 5 9 10 11 12 15 20 20 17 14 12 12 14 11 7 14 13 2 -4 1 -1 4 4 4 9 7 5 6 6 8 9 9 8 7 10 10 9 8 9 12
19 16 7 8 15 15 15 15 16 15 16 16 14 14 16 16 11 9 10 6 2 2 2 4 4 7 6 7 11 7 5 1 0 2 4 4 5 4 6 8 7 7 9 9
7 8 11 15 16 15 15 14 15 15 14 19 19 13 11 9 10 7 3 4 -1 3 4 8 8 7 7 9 10 9 4 1 0 -4 1 6 2 3 4 4 4 5 6 7
-2 -0 11 10 9 7 10 11 11 15 15 16 18 12 10 11 6 4 9 5 8 10 11 12 9 8 5 4 10 11 10 6 1 -5 -2 0 0 -8 -7 0 7 7 10 8
MSLP
1010.68 1010.29 1010.03 1009.96 1009.73 1009.37 1009.22 1008.71 1007.34 1004.52 1003.73 1004.49 1005.27 1005.06 1004.43 1005.08 1005.15 1004.95 1005.06 1005.10 1005.71 1006.76 1007.67 1008.37 1009.09 1009.40 1009.60 1009.71 1009.34 1010.02 1010.77 1012.32 1014.15 1014.10 1013.81 1013.85 1013.82 1014.16 1014.64 1015.57 1016.84 1017.70 1018.19 1018.67
1010.57 1010.32 1010.05 1009.80 1009.53 1009.07 1008.78 1008.41 1006.96 1005.17 1003.78 1004.46 1005.26 1004.85 1005.64 1005.59 1005.25 1005.19 1005.16 1005.11 1005.30 1005.91 1007.01 1008.02 1008.65 1009.17 1009.86 1009.87 1009.64 1009.75 1010.24 1011.67 1013.78 1014.47 1014.33 1014.17 1014.07 1013.89 1013.96 1014.59 1015.56 1016.86 1018.30 1019.37
1010.69 1010.40 1010.03 1009.70 1009.33 1008.81 1008.61 1008.69 1007.00 1005.38 1004.53 1004.95 1004.69 1005.22 1005.63 1006.16 1005.58 1005.44 1005.38 1005.61 1005.73 1006.21 1007.15 1007.38 1008.86 1009.89 1010.38 1010.25 1010.35 1010.39 1010.13 1011.39 1012.01 1012.45 1012.30 1012.63 1013.54 1013.38 1013.65 1014.20 1015.50 1016.22 1017.02 1019.06
1010.56 1010.15 1009.87 1009.46 1008.98 1008.28 1007.81 1007.98 1006.93 1006.15 1005.13 1005.39 1004.58 1004.93 1005.73 1006.17 1006.40 1006.50 1006.33 1006.65 1006.63 1007.12 1008.24 1008.57 1009.44 1010.69 1011.08 1011.12 1011.17 1011.14 1011.15 1012.12 1012.51 1012.57 1012.50 1012.68 1012.74 1012.89 1013.38 1013.96 1014.45 1015.54 1016.42 1017.81
1010.52 1010.03 1009.74 1009.36 1008.78 1008.24 1007.59 1007.63 1007.24 1006.31 1005.67 1005.08 1005.05 1005.41 1005.77 1005.74 1006.69 1006.53 1007.11 1007.72 1008.35 1008.42 1009.09 1009.43 1010.23 1010.48 1011.34 1011.54 1012.15 1012.35 1012.41 1013.31 1013.42 1013.68 1013.35 1013.24 1013.44 1013.58 1013.77 1014.26 1014.76 1015.49 1016.31 1017.61
1010.95 1010.39 1009.81 1009.24 1008.84 1008.28 1008.05 1007.66 1006.99 1006.56 1005.95 1005.79 1005.47 1005.24 1005.12 1005.58 1006.42 1007.67 1007.80 1008.27 1008.86 1009.61 1010.21 1010.32 1011.00 1011.30 1011.71 1012.31 1012.09 1013.42 1013.66 1013.93 1014.48 1014.90 1014.62 1014.65 1015.19 1014.54 1014.42 1014.54 1014.73 1015.36 1016.44 1016.73
1011.26 1010.59 1010.04 1009.49 1008.85 1008.51 1008.41 1008.25 1007.38 1006.97 1006.59 1005.97 1005.68 1005.68 1005.64 1006.13 1006.16 1006.95 1008.48 1009.05 1009.14 1010.73 1010.74 1011.54 1011.88 1012.06 1012.62 1013.24 1013.55 1013.74 1014.35 1014.57 1014.76 1015.70 1015.95 1016.06 1015.73 1015.23 1015.12 1015.44 1016.23 1016.55 1016.84 1017.64
1011.59 1010.85 1010.20 1009.59 1009.06 1008.44 1008.26 1008.20 1007.79 1007.33 1006.89 1006.53 1006.37 1006.36 1006.38 1006.59 1007.13 1008.12 1008.80 1009.56 1009.42 1010.08 1010.78 1012.03 1012.84 1013.63 1013.81 1014.38 1014.64 1014.80 1014.73 1014.61 1015.49 1016.06 1016.41 1016.33 1016.25 1016.05 1016.05 1016.00 1017.45 1017.70 1018.05 1018.90
1011.65 1010.99 1010.25 1009.62 1009.03 1008.32 1008.18 1008.34 1008.06 1007.35 1007.37 1007.24 1006.98 1006.74 1006.96 1007.00 1007.41 1008.81 1009.31 1009.85 1010.07 1010.46 1011.54 1012.54 1013.47 1014.22 1014.46 1015.57 1015.70 1015.42 1015.29 1015.22 1015.41 1016.46 1016.76 1016.68 1016.43 1016.30 1016.29 1016.50 1017.80 1018.19 1018.69 1019.71
1011.90 1011.03 1010.45 1009.66 1009.15 1008.75 1008.77 1008.78 1008.48 1007.93 1007.62 1007.57 1007.12 1007.08 1007.70 1007.73 1007.80 1008.66 1009.51 1010.18 1011.13 1011.10 1012.08 1012.98 1013.78 1014.56 1014.88 1015.18 1015.31 1015.85 1015.91 1015.96 1015.79 1016.07 1016.59 1016.76 1016.53 1016.61 1016.72 1017.45 1018.24 1018.24 1018.97 1019.89
1012.16 1011.26 1010.55 1010.01 1009.57 1009.23 1009.08 1009.12 1008.90 1008.52 1008.45 1008.82 1008.68 1008.57 1008.31 1008.07 1008.31 1008.76 1009.93 1010.23 1010.85 1011.58 1012.13 1013.04 1013.87 1014.64 1014.93 1015.26 1015.27 1015.16 1015.35 1015.67 1016.17 1016.43 1016.70 1016.82 1016.61 1017.13 1017.35 1017.69 1018.08 1018.74 1019.46 1020.17
1012.30 1011.59 1010.83 1010.35 1009.93 1009.68 1009.43 1009.48 1009.07 1008.97 1009.03 1009.91 1009.56 1009.05 1009.03 1008.98 1008.97 1008.97 1009.59 1010.16 1010.47 1010.98 1011.68 1013.01 1013.73 1014.77 1015.31 1015.25 1015.88 1015.48 1015.81 1015.43 1015.89 1016.49 1016.79 1016.46 1016.87 1017.14 1017.43 1017.77 1018.36 1019.51 1020.15 1020.91
1011.89 1011.29 1010.77 1010.52 1009.97 1009.74 1009.85 1009.73 1009.76 1009.45 1009.62 1010.02 1009.94 1010.26 1009.54 1008.89 1009.22 1009.06 1009.48 1010.04 1010.13 1010.71 1010.97 1012.46 1013.97 1014.79 1015.41 1016.17 1016.39 1016.31 1016.10 1015.68 1016.37 1016.89 1017.45 1017.69 1018.11 1018.31 1018.52 1018.93 1019.62 1020.39 1021.11 1021.74
1012.03 1011.36 1011.21 1010.73 1010.11 1010.24 1010.20 1010.26 1010.38 1010.17 1010.12 1011.04 1011.81 1010.99 1010.66 1010.46 1009.50 1009.11 1009.13 1009.69 1010.36 1011.10 1011.61 1012.80 1014.35 1015.38 1015.67 1016.64 1016.83 1017.16 1017.24 1016.93 1017.66 1018.25 1018.69 1019.15 1019.72 1019.97 1020.20 1020.66 1021.13 1021.62 1022.21 1022.68
1012.81 1012.21 1011.71 1011.48 1011.10 1010.86 1010.79 1010.68 1010.81 1010.71 1010.90 1011.75 1012.20 1011.95 1012.01 1011.48 1010.65 1010.34 1010.36 1010.73 1011.43 1012.30 1013.12 1014.16 1015.71 1016.13 1016.37 1017.61 1017.72 1018.83 1019.29 1019.40 1019.32 1019.56 1019.41 1019.98 1021.50 1021.86 1021.80 1022.14 1022.79 1023.05 1023.23 1023.77
1013.77 1013.13 1012.55 1012.06 1011.46 1011.01 1010.96 1011.12 1011.31 1011.13 1010.90 1011.57 1013.06 1013.68 1013.25 1012.55 1012.00 1011.74 1012.09 1012.28 1012.55 1013.23 1014.48 1015.89 1016.38 1016.56 1016.92 1018.79 1020.27 1021.05 1021.13 1020.87 1020.63 1020.62 1020.95 1021.35 1022.55 1023.03 1023.30 1023.65 1024.00 1024.11 1024.28 1024.49
1014.19 1013.67 1013.15 1012.76 1012.35 1012.03 1011.97 1012.40 1012.23 1011.61 1011.38 1012.06 1013.63 1014.24 1014.19 1013.74 1013.39 1013.49 1013.47 1013.52 1014.12 1014.57 1015.77 1016.59 1017.17 1017.47 1017.80 1019.82 1021.64 1022.39 1022.62 1022.55 1022.29 1022.14 1022.06 1023.04 1023.72 1024.49 1024.66 1024.74 1024.93 1025.02 1025.35 1025.61
1014.25 1013.53 1013.32 1012.95 1012.75 1012.61 1012.72 1012.53 1012.17 1011.78 1012.00 1012.67 1014.14 1015.07 1015.07 1014.96 1014.79 1014.90 1014.99 1015.21 1015.67 1016.39 1017.01 1017.22 1017.95 1018.56 1019.59 1021.83 1023.17 1023.62 1023.94 1023.89 1023.78 1023.73 1023.45 1024.04 1024.87 1025.29 1025.73 1025.88 1026.06 1026.38 1026.67 1026.74
1014.13 1013.58 1013.22 1013.37 1013.65 1013.77 1013.48 1012.76 1012.28 1012.24 1012.74 1013.50 1014.71 1015.66 1016.05 1015.73 1015.65 1015.74 1015.93 1016.44 1017.56 1017.78 1018.10 1018.41 1018.88 1020.55 1022.58 1024.12 1024.70 1025.03 1025.40 1025.45 1025.50 1025.41 1025.49 1025.77 1026.03 1026.42 1026.68 1026.98 1027.13 1027.23 1027.42 1027.40
1014.47 1014.13 1014.25 1014.77 1014.55 1013.99 1013.53 1013.03 1013.28 1013.40 1014.17 1014.74 1015.99 1016.57 1016.78 1016.57 1016.32 1016.84 1017.17 1017.71 1018.73 1019.08 1019.41 1019.17 1020.13 1022.57 1024.72 1025.67 1026.30 1026.53 1026.75 1026.54 1026.34 1026.39 1026.78 1027.16 1027.57 1027.83 1027.86 1028.03 1027.96 1027.80 1027.88 1027.67
1015.60 1015.88 1016.05 1015.25 1014.46 1014.45 1015.45 1015.96 1016.40 1017.02 1017.36 1016.99 1017.38 1017.43 1017.37 1017.25 1017.25 1017.65 1018.38 1019.02 1019.88 1020.40 1020.55 1020.66 1022.18 1023.96 1025.77 1026.68 1027.27 1027.59 1027.60 1027.53 1027.54 1027.39 1027.60 1027.95 1028.46 1028.53 1028.64 1028.49 1028.41 1028.39 1028.10 1027.85
1017.20 1016.99 1016.38 1015.95 1016.24 1017.20 1017.87 1018.97 1018.60 1018.37 1018.59 1018.33 1018.19 1018.32 1018.28 1018.21 1018.07 1018.76 1019.65 1020.43 1021.00 1021.71 1021.64 1022.48 1024.21 1025.73 1026.54 1027.26 1028.08 1028.28 1028.30 1028.44 1028.68 1028.59 1028.52 1028.73 1028.89 1028.98 1028.99 1028.77 1028.93 1028.59 1028.23 1028.16
1016.42 1016.64 1017.35 1017.77 1019.04 1019.56 1020.37 1020.81 1020.47 1019.97 1019.40 1019.25 1019.16 1019.21 1019.09 1018.96 1019.12 1020.05 1020.55 1021.39 1022.04 1021.94 1023.23 1024.41 1025.38 1026.36 1027.33 1028.01 1028.40 1028.70 1028.86 1029.37 1029.19 1029.24 1029.17 1029.09 1029.18 1029.19 1029.39 1029.15 1028.92 1028.84 1028.65 1028.15
1017.74 1018.30 1019.07 1020.06 1020.93 1021.50 1021.72 1021.67 1021.33 1021.12 1020.45 1019.97 1019.68 1019.75 1019.84 1020.05 1020.22 1020.88 1021.73 1022.51 1022.69 1024.01 1025.08 1025.55 1026.37 1027.11 1027.88 1028.26 1028.83 1029.40 1029.93 1029.89 1029.83 1029.69 1029.61 1029.57 1029.52 1029.39 1029.27 1029.18 1028.97 1028.76 1028.39 1027.87
1019.89 1020.29 1021.59 1022.07 1022.41 1022.54 1022.47 1022.19 1022.02 1022.00 1021.53 1020.88 1020.41 1020.45 1020.51 1020.84 1021.26 1021.71 1022.64 1023.57 1024.32 1025.04 1025.33 1026.02 1026.78 1027.54 1028.26 1028.91 1029.35 1029.71 1030.06 1030.09 1030.14 1030.07 1030.04 1030.05 1030.06 1029.94 1029.56 1029.14 1028.87 1028.60 1028.26 1027.85
1022.87 1023.74 1023.69 1023.74 1023.45 1023.62 1023.57 1023.52 1023.17 1022.90 1022.20 1021.29 1021.02 1021.01 1021.16 1021.43 1021.84 1022.57 1023.23 1024.12 1024.66 1025.28 1025.93 1026.55 1027.45 1028.41 1028.99 1029.35 1029.51 1029.76 1029.97 1030.20 1030.43 1030.58 1030.55 1030.39 1030.17 1029.95 1029.46 1028.90 1028.41 1027.90 1027.57 1027.14
1025.95 1026.46 1026.09 1026.06 1025.93 1025.78 1025.45 1025.15 1024.70 1023.97 1022.99 1022.00 1021.41 1021.47 1021.60 1022.07 1022.69 1023.56 1024.05 1024.79 1025.35 1025.81 1026.67 1027.47 1028.08 1028.83 1029.47 1029.63 1029.71 1029.91 1030.20 1030.42 1030.54 1030.49 1030.29 1029.95 1029.39 1029.30 1029.33 1028.53 1027.46 1027.10 1026.71 1026.27
Wind_Speed
14 12 9 10 12 18 10 2 6 3 16 9 7 15 17 6 4 2 3 4 5 8 9 7 6 11 2 4 7 14 4 6 5 7 3 3 4 6 7 6 6 2 4 5
14 9 10 10 13 17 2 3 4 2 4 9 10 10 12 2 6 5 3 4 1 4 8 6 5 6 2 3 4 15 9 3 4 4 5 1 6 5 4 4 4 7 7 4
14 9 9 10 12 11 4 3 4 2 2 2 17 16 16 20 2 2 4 3 4 4 4 1 7 4 2 2 3 2 4 4 6 10 6 6 7 8 7 6 4 5 5 7
17 12 10 13 15 19 3 2 2 3 3 3 6 14 13 18 6 2 3 3 4 7 4 4 6 3 3 5 5 3 3 5 3 2 4 4 4 5 9 12 6 7 6 10
20 14 10 14 14 18 1 2 3 1 2 3 5 11 10 23 8 6 3 4 2 3 6 3 8 8 4 4 4 3 3 3 3 0 2 4 3 3 6 4 4 3 9 5
20 18 17 17 13 10 2 3 3 3 3 2 5 5 9 12 14 0 2 8 7 5 6 9 8 9 10 2 9 3 3 6 4 4 2 4 6 6 7 5 2 4 8 6
23 20 19 19 20 8 1 3 4 2 2 0 2 7 6 12 21 11 4 3 6 6 16 10 7 13 14 12 10 5 6 6 3 4 2 4 0 3 1 6 3 3 9 12
21 22 22 20 19 17 1 2 3 2 2 1 3 6 5 13 4 4 6 2 3 18 5 5 5 4 5 7 7 6 4 3 3 6 4 1 2 4 5 5 1 2 12 13
24 22 22 22 19 19 2 2 3 2 2 3 3 4 3 4 7 4 4 8 9 5 4 4 5 6 4 5 3 3 4 4 3 3 5 11 2 3 1 2 2 7 12 9
26 23 21 22 15 14 4 2 7 2 2 4 4 4 2 3 4 5 5 7 4 2 3 4 4 3 3 8 9 6 3 2 8 5 2 3 2 3 1 5 3 8 10 12
26 25 20 19 12 9 3 2 3 3 2 5 7 4 2 4 3 4 5 4 1 2 4 3 4 4 4 4 3 5 5 6 3 3 3 4 5 3 5 3 5 8 6 5
27 24 17 17 16 5 4 2 3 3 3 1 1 6 9 5 3 4 2 2 3 3 5 2 3 3 2 5 4 1 3 4 5 3 2 2 4 2 3 5 8 5 7 5
23 17 16 15 15 2 3 2 4 2 2 3 5 5 9 11 4 4 4 1 2 3 2 4 2 5 2 3 2 4 4 2 5 4 3 5 5 5 5 5 8 8 8 6
22 16 13 14 12 10 6 3 4 2 2 3 3 6 5 13 7 8 3 6 5 4 3 4 3 4 1 2 3 4 1 3 5 4 5 7 7 6 5 9 9 10 7 5
23 20 16 16 11 12 7 3 4 4 2 3 1 4 9 10 11 15 12 8 5 3 4 4 3 2 3 2 3 4 5 2 3 4 4 4 3 3 5 9 7 6 7 6
22 22 20 18 16 10 2 2 2 6 3 3 3 2 6 8 9 13 14 7 5 4 4 2 2 2 4 4 3 2 4 5 4 5 5 11 8 7 5 7 6 7 7 6
19 19 19 18 13 7 4 3 5 9 2 3 3 2 5 6 5 4 4 5 4 3 2 3 2 3 4 3 3 4 4 6 7 6 6 8 6 5 6 7 7 7 6 6
24 20 16 10 10 3 3 3 15 4 3 3 3 2 2 6 3 3 3 3 4 6 2 3 3 3 3 4 4 4 4 6 10 9 9 8 8 8 7 7 5 6 5 4
21 16 7 4 5 4 4 20 8 2 3 3 3 2 1 4 2 1 3 3 4 2 3 2 3 1 3 3 4 4 4 3 5 7 9 9 9 7 7 6 6 5 3 4
14 7 5 5 3 12 9 8 6 7 5 5 3 1 2 2 1 2 3 3 2 2 1 1 3 3 3 4 4 4 4 3 3 4 5 4 5 5 4 3 1 1 3 3
4 4 3 5 9 5 5 4 5 4 5 3 2 2 2 4 3 2 3 2 1 3 3 3 1 2 0 1 2 3 4 5 7 6 5 5 3 1 2 4 4 4 4 4
5 7 6 3 6 5 7 2 4 5 2 3 2 1 1 2 2 4 3 3 4 2 1 4 1 2 3 3 1 2 2 4 5 4 5 3 2 1 1 3 4 5 5 6
2 1 4 3 4 7 5 2 4 2 3 2 2 2 1 3 4 3 2 5 1 1 4 3 4 2 3 3 1 2 2 2 2 2 2 2 1 2 1 4 4 5 5 6
2 3 4 3 4 2 1 1 0 1 3 4 2 2 2 1 4 1 6 1 4 4 2 5 3 4 4 2 1 3 1 1 1 3 4 4 5 5 5 4 5 5 7 9
4 4 4 4 1 1 2 2 2 4 3 3 2 3 2 1 3 2 4 4 1 5 5 3 3 4 4 3 3 3 2 2 2 3 3 5 5 5 7 7 5 6 8 8
5 8 4 5 2 3 4 5 2 4 5 2 0 2 3 2 3 3 4 7 6 3 2 2 5 5 3 3 2 2 1 1 3 3 3 5 5 6 6 7 6 7 6 7
6 3 2 3 2 1 2 3 4 5 3 1 2 2 5 1 3 2 2 2 1 4 5 4 4 5 4 2 1 1 2 4 4 3 4 4 4 3 3 6 6 6 7 7
Wind_Direction
333 333 316 320 336 337 326 244 247 332 156 156 184 186 183 144 157 127 160 126 121 155 161 145 177 191 262 343 159 183 179 111 161 195 254 220 176 180 163 141 212 228 139 260
343 343 347 336 344 357 328 248 262 258 184 169 177 198 206 24 164 178 151 148 184 126 154 135 164 168 101 351 153 157 181 163 94 11 2 316 216 198 168 125 83 188 138 230
354 338 339 340 328 323 195 269 268 276 95 274 188 168 199 204 87 112 151 154 114 112 127 58 146 117 31 22 96 62 96 124 160 187 191 141 182 195 190 150 131 175 209 154
346 330 317 335 342 348 80 198 278 318 142 205 133 173 175 185 173 128 38 82 166 152 135 116 121 109 120 39 356 40 96 138 134 92 115 133 167 174 177 205 193 180 183 173
3 360 339 341 348 337 278 295 306 333 30 107 108 163 181 188 174 158 227 161 125 78 136 171 178 135 156 165 39 47 356 140 91 32 120 121 145 126 160 152 166 193 143 204
2 6 1 348 346 355 343 304 314 316 349 128 145 183 179 185 158 200 60 158 115 96 130 94 71 71 76 115 131 121 120 132 115 224 360 64 322 207 188 175 96 155 191 186
358 356 355 350 354 351 300 291 286 314 326 10 148 161 164 196 193 165 127 147 108 128 128 114 77 64 66 65 52 50 143 124 104 151 94 213 274 321 46 102 36 104 93 124
356 350 350 349 351 355 245 332 305 291 322 11 84 123 165 165 139 94 129 133 142 149 101 89 85 34 37 23 41 33 11 109 107 145 194 6 295 200 154 162 248 143 118 108
353 350 345 346 348 341 72 341 314 304 320 16 75 73 78 146 133 109 113 111 111 63 83 81 163 202 141 193 130 40 57 59 108 124 190 208 115 153 85 132 254 167 132 127
350 346 345 343 356 30 42 322 347 316 21 9 354 43 60 80 87 101 121 137 117 88 138 132 138 162 149 168 160 156 128 90 192 169 165 275 249 174 209 139 194 140 145 157
347 343 344 349 350 5 21 303 345 336 52 22 3 24 44 66 33 118 153 122 74 117 90 122 150 148 174 109 145 165 152 134 153 128 121 217 165 79 159 186 97 125 119 125
347 335 341 341 347 349 16 322 1 332 54 102 5 87 54 34 340 100 58 103 123 159 115 133 129 101 104 148 148 147 134 157 147 133 155 58 125 88 98 138 125 118 108 99
338 341 345 340 331 41 46 30 356 347 79 40 22 351 331 7 352 264 117 328 100 69 46 129 121 91 118 122 227 104 13 99 93 96 345 105 64 54 57 77 93 92 102 104
1 356 4 1 44 57 51 45 8 360 27 80 345 323 21 323 6 50 33 109 62 83 59 80 86 105 27 119 118 105 220 85 121 80 68 82 49 36 91 91 91 93 78 88
18 19 22 19 42 74 64 54 22 11 6 131 30 322 356 354 37 54 49 61 72 38 50 52 80 90 85 16 69 45 346 107 131 193 144 110 80 28 63 82 80 76 102 81
3 13 20 21 2 348 330 39 35 357 354 86 60 299 344 346 17 48 42 39 48 61 85 102 47 4 90 85 82 17 5 13 313 139 77 92 98 71 55 80 72 69 73 72
344 347 347 355 17 25 42 32 350 352 343 83 94 42 347 339 344 22 23 29 49 64 81 59 101 28 58 84 127 116 44 33 34 48 92 63 29 102 63 72 53 62 68 65
329 325 335 338 8 44 353 325 339 359 78 65 88 45 13 357 21 46 355 38 27 14 81 30 62 18 53 76 83 90 52 66 44 33 48 85 107 76 62 56 55 63 57 31
334 333 348 47 30 10 288 310 340 12 87 101 82 94 122 336 44 68 33 59 61 310 86 49 74 54 65 35 111 80 19 53 113 74 75 76 81 78 64 64 46 54 10 359
345 21 39 358 284 308 328 2 17 14 347 30 74 5 56 21 49 59 73 18 61 70 25 48 70 85 96 48 64 87 55 21 141 102 90 65 61 60 48 42 24 7 295 309
2 16 347 247 329 35 26 26 67 323 25 17 38 64 99 346 83 90 41 120 27 81 269 104 70 136 206 22 83 59 55 54 60 84 95 85 128 126 356 337 340 320 304 298
257 288 296 323 30 25 68 332 341 47 54 11 46 6 74 352 28 82 355 94 44 176 231 77 313 242 138 120 89 39 53 68 66 69 89 67 34 347 288 301 301 304 304 302
325 23 36 3 320 31 71 333 324 53 7 328 12 19 83 8 48 62 83 71 181 49 49 209 217 160 137 170 141 39 55 44 68 52 52 24 334 321 205 287 280 283 280 282
360 36 357 72 342 35 162 221 206 328 313 1 20 18 108 239 50 110 83 282 71 48 39 243 231 192 168 157 124 109 158 128 79 5 5 354 348 324 318 298 298 303 300 301
25 39 33 25 240 328 314 293 33 353 307 333 23 22 65 48 77 66 101 48 240 195 221 211 172 134 127 137 118 104 67 17 351 334 341 317 303 291 290 286 274 265 272 273
50 31 22 344 29 13 10 357 6 4 321 272 187 125 77 260 143 86 200 132 211 227 174 111 107 117 118 117 99 107 191 248 264 273 261 270 266 264 265 289 266 261 250 266
40 348 22 332 13 294 340 343 340 319 302 331 301 159 214 77 59 71 9 142 101 117 101 88 97 123 146 142 116 103 220 238 247 232 260 253 258 297 324 312 305 290 285 263